#timestamp,LO_Frequency,Hit,StdDev 
1643706015.1,286047002.6,N
1643706016.0,286047002.6,N
1643706035.8,286046999.9,N
1643706055.6,286047000.2,N
1643706075.5,286047002.2,N
1643706095.3,286047000.3,N
1643706115.1,286047000.2,N
1643706135.9,286046999.7,N
1643706155.7,286047000.0,N
1643706175.6,286047000.2,N
1643706195.4,286047002.7,N
1643706215.2,286046999.8,N
1643706235.1,286047000.0,N
1643706236.0,286047000.0,N
1643706255.8,286047002.7,N
1643706275.6,286047000.1,N
1643706295.5,286047000.1,N
1643706315.3,286047001.5,N
1643706335.2,286047000.1,N
1643706355.9,286047000.6,N
1643706375.7,286046999.9,N
1643706395.6,286047001.2,N
1643706415.4,286046999.3,N
1643706435.2,286046998.3,N
1643706455.1,286047000.6,N
1643706456.0,286047000.6,N
1643706475.8,286047000.0,N
1643706495.7,286047002.8,N
1643706515.5,286047000.0,N
1643706535.3,286047000.0,N
1643706555.2,286047000.9,N
1643706575.0,286047000.9,N
1643706575.9,286047000.9,N
1643706595.8,286046998.5,N
1643706615.6,286046998.5,N
1643706635.4,286046999.5,N
1643706655.3,286046998.2,N
1643706675.1,286047000.8,N
1643706695.9,286047000.7,N
1643706715.7,286046998.3,N
1643706735.5,286046999.2,N
1643706755.4,286046999.4,N
1643706775.2,286046996.9,N
1643706795.0,286046998.9,N
1643706795.9,286046998.9,N
1643706815.8,286046998.6,N
1643706835.6,286046999.0,N
1643706855.5,286046996.7,N
1643706875.3,286046999.2,N
1643706895.1,286046999.4,N
1643706915.9,286046999.3,N
1643706935.7,286046998.6,N
1643706955.5,286046998.5,N
1643706975.4,286046998.7,N
1643706995.2,286047001.1,N
1643707015.1,286047001.0,N
1643707016.0,286047001.0,N
1643707035.8,286046998.5,N
1643707055.6,286046998.4,N
1643707075.5,286047001.0,N
1643707095.3,286047000.4,N
1643707115.1,286046998.7,N
1643707135.9,286046998.2,N
1643707155.7,286046998.5,N
1643707175.6,286046998.5,N
1643707195.4,286047000.5,N
1643707215.3,286047000.6,N
1643707235.1,286047000.7,N
1643707236.0,286047000.7,N
1643707255.8,286047001.0,N
1643707275.7,286047001.1,N
1643707295.5,286047001.2,N
1643707315.3,286046998.4,N
1643707335.2,286047001.0,N
1643707355.0,286047000.6,N
1643707355.9,286047000.6,N
1643707375.8,286047000.4,N
1643707395.6,286047000.5,N
1643707415.4,286047000.7,N
1643707435.3,286047000.3,N
1643707455.1,286047000.5,N
1643707475.9,286046999.9,N
1643707495.7,286047000.0,N
1643707515.5,286047000.1,N
1643707535.4,286047000.6,N
1643707555.2,286047000.5,N
1643707575.0,286047001.0,N
1643707575.9,286047001.0,N
1643707595.8,286047000.8,N
1643707615.6,286047000.9,N
1643707635.5,286046998.2,N
1643707655.3,286047001.1,N
1643707675.1,286047001.2,N
1643707695.9,286046998.2,N
1643707715.7,286046996.9,Y
1643707735.5,286046996.9,P
1643707755.4,286046999.0,N
1643707775.2,286046999.5,N
1643707795.1,286047000.8,N
1643707796.0,286047000.8,N
1643707815.8,286047000.9,N
1643707835.6,286047000.2,N
1643707855.5,286047000.0,N
1643707875.3,286047002.3,N
1643707895.2,286047001.8,N
1643707915.9,286047002.6,N
1643707935.7,286047002.5,N
1643707955.6,286047000.9,N
1643707975.4,286047000.3,N
1643707995.2,286047000.4,N
1643708015.1,286047002.6,N
1643708016.0,286047002.6,N
1643708035.8,286047000.4,N
1643708055.7,286046999.9,N
1643708075.5,286046999.8,N
1643708095.3,286047004.0,N
1643708115.2,286047001.3,N
1643708135.0,286047004.3,N
1643708135.9,286047004.3,N
1643708155.8,286047004.0,N
1643708175.6,286047004.1,N
1643708195.4,286047003.8,N
1643708215.3,286047001.9,N
1643708235.1,286047001.3,N
1643708255.8,286047001.4,N
1643708275.7,286047004.0,N
1643708295.5,286047002.3,N
1643708315.4,286047002.3,N
1643708335.2,286047002.8,N
1643708355.0,286047002.8,N
1643708355.9,286047002.8,N
1643708375.8,286047001.6,N
1643708395.6,286047002.4,N
1643708415.4,286047000.2,N
1643708435.3,286047002.2,N
1643708455.1,286047002.3,N
1643708475.9,286047002.5,N
1643708495.7,286047002.7,N
1643708515.5,286047002.7,N
1643708535.4,286047000.5,N
1643708555.2,286046999.7,N
1643708575.0,286047000.2,N
1643708576.0,286047000.2,N
1643708595.8,286046999.7,N
1643708615.6,286047000.0,N
1643708635.5,286047002.6,N
1643708655.3,286047002.5,N
1643708675.1,286047001.3,N
1643708695.9,286047004.4,Y
1643708715.7,286046999.8,P
1643708735.6,286046999.7,N
1643708755.4,286047001.1,N
1643708775.2,286047000.0,N
1643708795.1,286047000.1,N
1643708796.0,286047000.1,N
1643708815.8,286047001.0,N
1643708835.7,286047000.8,N
1643708855.5,286047000.3,N
1643708875.3,286047001.2,N
1643708895.2,286047001.2,N
1643708915.9,286047001.0,N
1643708935.7,286047000.7,N
1643708955.6,286047000.5,N
1643708975.4,286047002.8,Y
1643708995.3,286047000.3,P
1643709015.1,286047001.1,P
1643709016.0,286047001.1,P
1643709035.8,286047000.9,N
1643709055.7,286046998.4,Y
1643709075.5,286046998.5,P
1643709095.4,286046999.1,N
1643709115.2,286046997.0,P
1643709135.0,286046996.6,N
1643709135.9,286046996.6,N
1643709155.8,286046996.8,N
1643709175.6,286046996.9,N
1643709195.4,286046997.5,N
1643709215.3,286046997.7,N
1643709235.1,286046996.7,N
1643709255.9,286046999.4,N
1643709275.7,286046997.3,N
1643709295.5,286046996.8,N
1643709315.4,286046998.7,N
1643709335.2,286046999.4,N
1643709355.0,286046996.8,N
1643709355.9,286046996.8,N
1643709375.8,286046997.2,N
1643709395.6,286046996.9,N
1643709415.5,286046996.8,N
1643709435.3,286046999.5,N
1643709455.1,286046996.9,N
1643709475.9,286046998.7,N
1643709495.7,286046998.8,N
1643709515.6,286046998.7,N
1643709535.4,286046998.4,N
1643709555.2,286046998.1,N
1643709575.1,286046998.5,N
1643709576.0,286046998.5,N
1643709595.8,286046998.2,N
